User: anonymous   Login
Location: Unspecified
(0.0000°N, 0.0000°E)
Time: 09:37:12
(UTC+00:00)
Language:

Triad OI-1X - Orbit

View from above orbital plane
View from above orbital plane
View from above satellite
View from above satellite

Ground track
Ground track

The orbit data is extracted from the following two-line orbital elements,

1 06173U 72069A   17327.83489414  .00000158  00000-0  37805-4 0  9993
2 06173  89.8841 227.8647 0050478 268.0461 133.2520 14.48847669377655
Epoch (UTC): 23 November 2017 20:02:14
Eccentricity: 0.0050478
inclination: 89.8841°
perigee height: 693 km
apogee height: 765 km
right ascension of ascending node: 227.8647°
argument of perigee: 268.0461°
revolutions per day: 14.48847669
mean anomaly at epoch: 133.2520°
orbit number at epoch: 37765

The dashed part of the orbit path shows where the satellite is in the earth's shadow,  

DLR